Location: Katowice
(50.2611°N, 19.0242°E)
Time: 13:53:08
(UTC+02:00)

A-11 Canister half - Pass Details

Date: 23 July 2019
Orbit: 1526 x 1683 km, 47.3° (Epoch: 21 August)

Event Time Altitude Azimuth Distance (km) Brightness Sun altitude
Rises 23:50:18 0° 265° (W) 4,895 11.8 -18.3°
Reaches altitude 10° 23:53:29 10° 264° (W) 3,891 11.2 -18.4°
Maximum altitude 00:03:23 76° 182° (S) 1,653 9.0 -18.8°
Drops below altitude 10° 00:12:56 10° 99° (E) 3,766 10.9 -19.1°
Sets 00:15:58 0° 98° (E) 4,731 11.4 -19.1°
